Location: Unspecified
(49.8670°N, 0.0000°E)
Time: 10:31:16
(UTC+00:00)

Vanguard 1 - Pass Details

Date: 26 June 2019
Orbit: 653 x 3830 km, 34.3° (Epoch: 20 July)

Event Time Altitude Azimuth Distance (km) Brightness Sun altitude
Rises 07:14:48 0° 270° (W) 5,954 13.5 29.1°
Reaches altitude 10° 07:21:23 10° 251° (WSW) 4,196 12.9 30.1°
Maximum altitude 07:26:31 15° 222° (SW) 3,210 12.5 31.0°
Drops below altitude 10° 07:30:31 10° 190° (S) 3,101 12.6 31.6°
Sets 07:34:10 0° 166° (SSE) 3,646 13.2 32.2°
